<?xml version='1.0' encoding='UTF-8'?>
<gpx xmlns="http://www.topografix.com/GPX/1/1" creator="www.balnam.be" version="1.1" xmlns:xsi="http://www.w3.org/2001/XMLSchema-instance" xsi:schemaLocation="http://www.topografix.com/GPX/1/1 http://www.topografix.com/GPX/1/1/gpx.xsd">
<trk>
<name>hfmsb1</name>
<cmt>r</cmt>
<desc>Sars-la-Bruyère Chemin n°1 Chaussée Brunehaut</desc>
<link href="https://chemins.be/sarslabruyere/chemin/1"/><trkseg>
<trkpt lat="50.379139" lon="3.898733"><time>2026-05-04T17:42:59Z</time></trkpt>
<trkpt lat="50.376382" lon="3.895062"><time>2026-05-04T17:52:59Z</time></trkpt>
</trkseg></trk>
<trk>
<name>hfmsb1</name>
<cmt>v</cmt>
<desc>Sars-la-Bruyère Chemin n°1 Chaussée Brunehaut</desc>
<link href="https://chemins.be/sarslabruyere/chemin/1"/><trkseg>
<trkpt lat="50.376382" lon="3.895062"><time>2026-05-04T17:52:59Z</time></trkpt>
<trkpt lat="50.375134" lon="3.893374"><time>2026-05-04T18:02:59Z</time></trkpt>
<trkpt lat="50.369747" lon="3.886092"><time>2026-05-04T18:12:59Z</time></trkpt>
<trkpt lat="50.367467" lon="3.883023"><time>2026-05-04T18:22:59Z</time></trkpt>
</trkseg></trk>
<trk>
<name>hfmsb1</name>
<cmt>r</cmt>
<desc>Sars-la-Bruyère Chemin n°1 Chaussée Brunehaut</desc>
<link href="https://chemins.be/sarslabruyere/chemin/1"/><trkseg>
<trkpt lat="50.367467" lon="3.883023"><time>2026-05-04T18:22:59Z</time></trkpt>
<trkpt lat="50.367331" lon="3.882637"><time>2026-05-04T18:32:59Z</time></trkpt>
<trkpt lat="50.366653" lon="3.880931"><time>2026-05-04T18:42:59Z</time></trkpt>
<trkpt lat="50.364566" lon="3.878131"><time>2026-05-04T18:52:59Z</time></trkpt>
<trkpt lat="50.360238" lon="3.870917"><time>2026-05-04T19:02:59Z</time></trkpt>
</trkseg></trk>
<trk>
<name>hfmsb1</name>
<cmt>v</cmt>
<desc>Sars-la-Bruyère Chemin n°1 Chaussée Brunehaut</desc>
<link href="https://chemins.be/sarslabruyere/chemin/1"/><trkseg>
<trkpt lat="50.360238" lon="3.870917"><time>2026-05-04T19:02:59Z</time></trkpt>
<trkpt lat="50.358413" lon="3.867874"><time>2026-05-04T19:12:59Z</time></trkpt>
<trkpt lat="50.357098" lon="3.865299"><time>2026-05-04T19:22:59Z</time></trkpt>
</trkseg>
</trk>
<trk>
<name>hfmsb11</name>
<cmt>v</cmt>
<desc>Sars-la-Bruyère Chemin n°11 </desc>
<link href="https://chemins.be/sarslabruyere/chemin/11"/><trkseg>
<trkpt lat="50.355850" lon="3.844878"><time>2026-05-04T17:42:59Z</time></trkpt>
<trkpt lat="50.355987" lon="3.845024"><time>2026-05-04T17:52:59Z</time></trkpt>
<trkpt lat="50.356932" lon="3.845380"><time>2026-05-04T18:02:59Z</time></trkpt>
<trkpt lat="50.357016" lon="3.845349"><time>2026-05-04T18:12:59Z</time></trkpt>
</trkseg>
</trk>
<trk>
<name>hfmsb12</name>
<cmt>v</cmt>
<desc>Sars-la-Bruyère Chemin n°12 </desc>
<link href="https://chemins.be/sarslabruyere/chemin/12"/><trkseg>
<trkpt lat="50.375624" lon="3.879762"><time>2026-05-04T17:42:59Z</time></trkpt>
<trkpt lat="50.378007" lon="3.879201"><time>2026-05-04T17:52:59Z</time></trkpt>
<trkpt lat="50.381227" lon="3.879731"><time>2026-05-04T18:02:59Z</time></trkpt>
<trkpt lat="50.382686" lon="3.878099"><time>2026-05-04T18:12:59Z</time></trkpt>
</trkseg>
</trk>
<trk>
<name>hfmsb13</name>
<cmt>q</cmt>
<desc>Sars-la-Bruyère Sentier n°13 Rue des Écoles / Place de Sars-la-Bruyère</desc>
<link href="https://chemins.be/sarslabruyere/sentier/13"/><trkseg>
<trkpt lat="50.385568" lon="3.885545"><time>2026-05-04T17:42:59Z</time></trkpt>
<trkpt lat="50.383689" lon="3.884042"><time>2026-05-04T17:52:59Z</time></trkpt>
<trkpt lat="50.382320" lon="3.884028"><time>2026-05-04T18:02:59Z</time></trkpt>
<trkpt lat="50.381399" lon="3.884257"><time>2026-05-04T18:12:59Z</time></trkpt>
</trkseg></trk>
<trk>
<name>hfmsb13</name>
<cmt>v</cmt>
<desc>Sars-la-Bruyère Sentier n°13 Rue des Écoles / Place de Sars-la-Bruyère</desc>
<link href="https://chemins.be/sarslabruyere/sentier/13"/><trkseg>
<trkpt lat="50.381399" lon="3.884257"><time>2026-05-04T18:12:59Z</time></trkpt>
<trkpt lat="50.374466" lon="3.878622"><time>2026-05-04T18:22:59Z</time></trkpt>
<trkpt lat="50.374208" lon="3.878536"><time>2026-05-04T18:32:59Z</time></trkpt>
<trkpt lat="50.374113" lon="3.878643"><time>2026-05-04T18:42:59Z</time></trkpt>
</trkseg></trk>
<trk>
<name>hfmsb13</name>
<cmt>q</cmt>
<desc>Sars-la-Bruyère Sentier n°13 Rue des Écoles / Place de Sars-la-Bruyère</desc>
<link href="https://chemins.be/sarslabruyere/sentier/13"/><trkseg>
<trkpt lat="50.374113" lon="3.878643"><time>2026-05-04T18:42:59Z</time></trkpt>
<trkpt lat="50.373647" lon="3.878404"><time>2026-05-04T18:52:59Z</time></trkpt>
<trkpt lat="50.372990" lon="3.877568"><time>2026-05-04T19:02:59Z</time></trkpt>
<trkpt lat="50.372497" lon="3.877417"><time>2026-05-04T19:12:59Z</time></trkpt>
<trkpt lat="50.371998" lon="3.877889"><time>2026-05-04T19:22:59Z</time></trkpt>
</trkseg></trk>
<trk>
<name>hfmsb13</name>
<cmt>r</cmt>
<desc>Sars-la-Bruyère Sentier n°13 Rue des Écoles / Place de Sars-la-Bruyère</desc>
<link href="https://chemins.be/sarslabruyere/sentier/13"/><trkseg>
<trkpt lat="50.371998" lon="3.877889"><time>2026-05-04T19:22:59Z</time></trkpt>
<trkpt lat="50.371796" lon="3.878439"><time>2026-05-04T19:32:59Z</time></trkpt>
<trkpt lat="50.371129" lon="3.878080"><time>2026-05-04T19:42:59Z</time></trkpt>
</trkseg></trk>
<trk>
<name>hfmsb13</name>
<cmt>v</cmt>
<desc>Sars-la-Bruyère Sentier n°13 Rue des Écoles / Place de Sars-la-Bruyère</desc>
<link href="https://chemins.be/sarslabruyere/sentier/13"/><trkseg>
<trkpt lat="50.371129" lon="3.878080"><time>2026-05-04T19:42:59Z</time></trkpt>
<trkpt lat="50.370589" lon="3.877043"><time>2026-05-04T19:52:59Z</time></trkpt>
<trkpt lat="50.369846" lon="3.875546"><time>2026-05-04T20:02:59Z</time></trkpt>
<trkpt lat="50.369001" lon="3.874059"><time>2026-05-04T20:12:59Z</time></trkpt>
<trkpt lat="50.367998" lon="3.872276"><time>2026-05-04T20:22:59Z</time></trkpt>
<trkpt lat="50.366593" lon="3.867596"><time>2026-05-04T20:32:59Z</time></trkpt>
<trkpt lat="50.365745" lon="3.866874"><time>2026-05-04T20:42:59Z</time></trkpt>
<trkpt lat="50.364660" lon="3.865494"><time>2026-05-04T20:52:59Z</time></trkpt>
</trkseg></trk>
<trk>
<name>hfmsb13</name>
<cmt>r</cmt>
<desc>Sars-la-Bruyère Sentier n°13 Rue des Écoles / Place de Sars-la-Bruyère</desc>
<link href="https://chemins.be/sarslabruyere/sentier/13"/><trkseg>
<trkpt lat="50.364660" lon="3.865494"><time>2026-05-04T20:52:59Z</time></trkpt>
<trkpt lat="50.363931" lon="3.865263"><time>2026-05-04T21:02:59Z</time></trkpt>
</trkseg></trk>
<trk>
<name>hfmsb13</name>
<cmt>v</cmt>
<desc>Sars-la-Bruyère Sentier n°13 Rue des Écoles / Place de Sars-la-Bruyère</desc>
<link href="https://chemins.be/sarslabruyere/sentier/13"/><trkseg>
<trkpt lat="50.363931" lon="3.865263"><time>2026-05-04T21:02:59Z</time></trkpt>
<trkpt lat="50.363443" lon="3.864846"><time>2026-05-04T21:12:59Z</time></trkpt>
<trkpt lat="50.362808" lon="3.865542"><time>2026-05-04T21:22:59Z</time></trkpt>
<trkpt lat="50.362342" lon="3.866383"><time>2026-05-04T21:32:59Z</time></trkpt>
</trkseg></trk>
<trk>
<name>hfmsb13</name>
<cmt>q</cmt>
<desc>Sars-la-Bruyère Sentier n°13 Rue des Écoles / Place de Sars-la-Bruyère</desc>
<link href="https://chemins.be/sarslabruyere/sentier/13"/><trkseg>
<trkpt lat="50.362342" lon="3.866383"><time>2026-05-04T21:32:59Z</time></trkpt>
<trkpt lat="50.361877" lon="3.866125"><time>2026-05-04T21:42:59Z</time></trkpt>
<trkpt lat="50.357866" lon="3.863969"><time>2026-05-04T21:52:59Z</time></trkpt>
<trkpt lat="50.356004" lon="3.859420"><time>2026-05-04T22:02:59Z</time></trkpt>
<trkpt lat="50.351212" lon="3.857542"><time>2026-05-04T22:12:59Z</time></trkpt>
<trkpt lat="50.350034" lon="3.857349"><time>2026-05-04T22:22:59Z</time></trkpt>
<trkpt lat="50.349788" lon="3.857682"><time>2026-05-04T22:32:59Z</time></trkpt>
<trkpt lat="50.348733" lon="3.856351"><time>2026-05-04T22:42:59Z</time></trkpt>
</trkseg>
</trk>
<trk>
<name>hfmsb14</name>
<cmt>q</cmt>
<desc>Sars-la-Bruyère Sentier n°14 </desc>
<link href="https://chemins.be/sarslabruyere/sentier/14"/><trkseg>
<trkpt lat="50.372032" lon="3.895508"><time>2026-05-04T17:42:59Z</time></trkpt>
<trkpt lat="50.374340" lon="3.892332"><time>2026-05-04T17:52:59Z</time></trkpt>
</trkseg>
</trk>
<trk>
<name>hfmsb15</name>
<cmt>v</cmt>
<desc>Sars-la-Bruyère Sentier n°15 </desc>
<link href="https://chemins.be/sarslabruyere/sentier/15"/><trkseg>
<trkpt lat="50.373777" lon="3.878176"><time>2026-05-04T17:42:59Z</time></trkpt>
<trkpt lat="50.372554" lon="3.880326"><time>2026-05-04T17:52:59Z</time></trkpt>
</trkseg>
</trk>
<trk>
<name>hfmsb16</name>
<cmt>r</cmt>
<desc>Sars-la-Bruyère Sentier n°16 Rue Vicomte Edward d'Hendecourt</desc>
<link href="https://chemins.be/sarslabruyere/sentier/16"/><trkseg>
<trkpt lat="50.371888" lon="3.878316"><time>2026-05-04T17:42:59Z</time></trkpt>
<trkpt lat="50.372727" lon="3.879362"><time>2026-05-04T17:52:59Z</time></trkpt>
</trkseg></trk>
<trk>
<name>hfmsb16</name>
<cmt>v</cmt>
<desc>Sars-la-Bruyère Sentier n°16 Rue Vicomte Edward d'Hendecourt</desc>
<link href="https://chemins.be/sarslabruyere/sentier/16"/><trkseg>
<trkpt lat="50.372727" lon="3.879362"><time>2026-05-04T17:52:59Z</time></trkpt>
<trkpt lat="50.373010" lon="3.879518"><time>2026-05-04T18:02:59Z</time></trkpt>
</trkseg>
</trk>
<trk>
<name>hfmsb17</name>
<cmt>q</cmt>
<desc>Sars-la-Bruyère Sentier n°17 </desc>
<link href="https://chemins.be/sarslabruyere/sentier/17"/><trkseg>
<trkpt lat="50.372795" lon="3.876581"><time>2026-05-04T17:42:59Z</time></trkpt>
<trkpt lat="50.372463" lon="3.877380"><time>2026-05-04T17:52:59Z</time></trkpt>
</trkseg>
</trk>
<trk>
<name>hfmsb18</name>
<cmt>q</cmt>
<desc>Sars-la-Bruyère Sentier n°18 </desc>
<link href="https://chemins.be/sarslabruyere/sentier/18"/><trkseg>
<trkpt lat="50.372713" lon="3.876457"><time>2026-05-04T17:42:59Z</time></trkpt>
<trkpt lat="50.372952" lon="3.877444"><time>2026-05-04T17:52:59Z</time></trkpt>
</trkseg>
</trk>
<trk>
<name>hfmsb19</name>
<cmt>q</cmt>
<desc>Sars-la-Bruyère Sentier n°19 </desc>
<link href="https://chemins.be/sarslabruyere/sentier/19"/><trkseg>
<trkpt lat="50.386872" lon="3.891563"><time>2026-05-04T17:42:59Z</time></trkpt>
<trkpt lat="50.383807" lon="3.895168"><time>2026-05-04T17:52:59Z</time></trkpt>
<trkpt lat="50.381686" lon="3.896413"><time>2026-05-04T18:02:59Z</time></trkpt>
</trkseg>
</trk>
<trk>
<name>hfmsb2</name>
<cmt>r</cmt>
<desc>Sars-la-Bruyère Chemin n°2 Rue du Bois</desc>
<link href="https://chemins.be/sarslabruyere/chemin/2"/><trkseg>
<trkpt lat="50.360316" lon="3.870878"><time>2026-05-04T17:42:59Z</time></trkpt>
<trkpt lat="50.362164" lon="3.866737"><time>2026-05-04T17:52:59Z</time></trkpt>
</trkseg></trk>
<trk>
<name>hfmsb2</name>
<cmt>v</cmt>
<desc>Sars-la-Bruyère Chemin n°2 Rue du Bois</desc>
<link href="https://chemins.be/sarslabruyere/chemin/2"/><trkseg>
<trkpt lat="50.362164" lon="3.866737"><time>2026-05-04T17:52:59Z</time></trkpt>
<trkpt lat="50.362328" lon="3.866415"><time>2026-05-04T18:02:59Z</time></trkpt>
</trkseg>
</trk>
<trk>
<name>hfmsb20</name>
<cmt>q</cmt>
<desc>Sars-la-Bruyère Sentier n°20 </desc>
<link href="https://chemins.be/sarslabruyere/sentier/20"/><trkseg>
<trkpt lat="50.374448" lon="3.878630"><time>2026-05-04T17:42:59Z</time></trkpt>
<trkpt lat="50.374078" lon="3.877407"><time>2026-05-04T17:52:59Z</time></trkpt>
<trkpt lat="50.372716" lon="3.874746"><time>2026-05-04T18:02:59Z</time></trkpt>
<trkpt lat="50.372015" lon="3.874580"><time>2026-05-04T18:12:59Z</time></trkpt>
<trkpt lat="50.371608" lon="3.874247"><time>2026-05-04T18:22:59Z</time></trkpt>
<trkpt lat="50.371317" lon="3.873711"><time>2026-05-04T18:32:59Z</time></trkpt>
<trkpt lat="50.371348" lon="3.873566"><time>2026-05-04T18:42:59Z</time></trkpt>
<trkpt lat="50.371142" lon="3.873306"><time>2026-05-04T18:52:59Z</time></trkpt>
<trkpt lat="50.371197" lon="3.873206"><time>2026-05-04T19:02:59Z</time></trkpt>
</trkseg>
</trk>
<trk>
<name>hfmsb21</name>
<cmt>v</cmt>
<desc>Sars-la-Bruyère Sentier n°21 Sentier de la Motte</desc>
<link href="https://chemins.be/sarslabruyere/sentier/21"/><trkseg>
<trkpt lat="50.373798" lon="3.871919"><time>2026-05-04T17:42:59Z</time></trkpt>
<trkpt lat="50.374797" lon="3.871704"><time>2026-05-04T17:52:59Z</time></trkpt>
<trkpt lat="50.374838" lon="3.871652"><time>2026-05-04T18:02:59Z</time></trkpt>
<trkpt lat="50.376345" lon="3.869706"><time>2026-05-04T18:12:59Z</time></trkpt>
</trkseg></trk>
<trk>
<name>hfmsb21</name>
<cmt>d</cmt>
<desc>Sars-la-Bruyère Sentier n°21 Sentier de la Motte</desc>
<link href="https://chemins.be/sarslabruyere/sentier/21"/><trkseg>
<trkpt lat="50.376345" lon="3.869706"><time>2026-05-04T18:12:59Z</time></trkpt>
<trkpt lat="50.377194" lon="3.868589"><time>2026-05-04T18:22:59Z</time></trkpt>
</trkseg></trk>
<trk>
<name>hfmsb21</name>
<cmt>q</cmt>
<desc>Sars-la-Bruyère Sentier n°21 Sentier de la Motte</desc>
<link href="https://chemins.be/sarslabruyere/sentier/21"/><trkseg>
<trkpt lat="50.377194" lon="3.868589"><time>2026-05-04T18:22:59Z</time></trkpt>
<trkpt lat="50.379491" lon="3.864344"><time>2026-05-04T18:32:59Z</time></trkpt>
</trkseg></trk>
<trk>
<name>hfmsb21</name>
<cmt>v</cmt>
<desc>Sars-la-Bruyère Sentier n°21 Sentier de la Motte</desc>
<link href="https://chemins.be/sarslabruyere/sentier/21"/><trkseg>
<trkpt lat="50.379491" lon="3.864344"><time>2026-05-04T18:32:59Z</time></trkpt>
<trkpt lat="50.381642" lon="3.861054"><time>2026-05-04T18:42:59Z</time></trkpt>
</trkseg>
</trk>
<trk>
<name>hfmsb22</name>
<cmt>v</cmt>
<desc>Sars-la-Bruyère Sentier n°22 Rue Haute</desc>
<link href="https://chemins.be/sarslabruyere/sentier/22"/><trkseg>
<trkpt lat="50.363435" lon="3.864833"><time>2026-05-04T17:42:59Z</time></trkpt>
<trkpt lat="50.364192" lon="3.862759"><time>2026-05-04T17:52:59Z</time></trkpt>
<trkpt lat="50.364806" lon="3.861254"><time>2026-05-04T18:02:59Z</time></trkpt>
<trkpt lat="50.366425" lon="3.860687"><time>2026-05-04T18:12:59Z</time></trkpt>
<trkpt lat="50.368363" lon="3.860049"><time>2026-05-04T18:22:59Z</time></trkpt>
<trkpt lat="50.368542" lon="3.860923"><time>2026-05-04T18:32:59Z</time></trkpt>
<trkpt lat="50.369140" lon="3.860704"><time>2026-05-04T18:42:59Z</time></trkpt>
<trkpt lat="50.369518" lon="3.859908"><time>2026-05-04T18:52:59Z</time></trkpt>
<trkpt lat="50.370752" lon="3.860080"><time>2026-05-04T19:02:59Z</time></trkpt>
<trkpt lat="50.371429" lon="3.860658"><time>2026-05-04T19:12:59Z</time></trkpt>
<trkpt lat="50.372683" lon="3.860127"><time>2026-05-04T19:22:59Z</time></trkpt>
<trkpt lat="50.373101" lon="3.859737"><time>2026-05-04T19:32:59Z</time></trkpt>
</trkseg></trk>
<trk>
<name>hfmsb22</name>
<cmt>d</cmt>
<desc>Sars-la-Bruyère Sentier n°22 Rue Haute</desc>
<link href="https://chemins.be/sarslabruyere/sentier/22"/><trkseg>
<trkpt lat="50.373101" lon="3.859737"><time>2026-05-04T19:32:59Z</time></trkpt>
<trkpt lat="50.374574" lon="3.859971"><time>2026-05-04T19:42:59Z</time></trkpt>
<trkpt lat="50.376578" lon="3.860567"><time>2026-05-04T19:52:59Z</time></trkpt>
</trkseg></trk>
<trk>
<name>hfmsb22</name>
<cmt>v</cmt>
<desc>Sars-la-Bruyère Sentier n°22 Rue Haute</desc>
<link href="https://chemins.be/sarslabruyere/sentier/22"/><trkseg>
<trkpt lat="50.376578" lon="3.860567"><time>2026-05-04T19:52:59Z</time></trkpt>
<trkpt lat="50.377319" lon="3.861192"><time>2026-05-04T20:02:59Z</time></trkpt>
</trkseg></trk>
<trk>
<name>hfmsb22</name>
<cmt>d</cmt>
<desc>Sars-la-Bruyère Sentier n°22 Rue Haute</desc>
<link href="https://chemins.be/sarslabruyere/sentier/22"/><trkseg>
<trkpt lat="50.377319" lon="3.861192"><time>2026-05-04T20:02:59Z</time></trkpt>
<trkpt lat="50.381619" lon="3.861082"><time>2026-05-04T20:12:59Z</time></trkpt>
</trkseg></trk>
<trk>
<name>hfmsb22</name>
<cmt>v</cmt>
<desc>Sars-la-Bruyère Sentier n°22 Rue Haute</desc>
<link href="https://chemins.be/sarslabruyere/sentier/22"/><trkseg>
<trkpt lat="50.381619" lon="3.861082"><time>2026-05-04T20:12:59Z</time></trkpt>
<trkpt lat="50.382922" lon="3.861137"><time>2026-05-04T20:22:59Z</time></trkpt>
</trkseg>
</trk>
<trk>
<name>hfmsb23</name>
<cmt>q</cmt>
<desc>Sars-la-Bruyère Sentier n°23 </desc>
<link href="https://chemins.be/sarslabruyere/sentier/23"/><trkseg>
<trkpt lat="50.376604" lon="3.860613"><time>2026-05-04T17:42:59Z</time></trkpt>
<trkpt lat="50.377815" lon="3.857051"><time>2026-05-04T17:52:59Z</time></trkpt>
</trkseg>
</trk>
<trk>
<name>hfmsb24</name>
<cmt>q</cmt>
<desc>Sars-la-Bruyère Sentier n°24 </desc>
<link href="https://chemins.be/sarslabruyere/sentier/24"/><trkseg>
<trkpt lat="50.373982" lon="3.870025"><time>2026-05-04T17:42:59Z</time></trkpt>
<trkpt lat="50.374886" lon="3.871677"><time>2026-05-04T17:52:59Z</time></trkpt>
</trkseg>
</trk>
<trk>
<name>hfmsb25</name>
<cmt>q</cmt>
<desc>Sars-la-Bruyère Sentier n°25 Rue de Taisnières</desc>
<link href="https://chemins.be/sarslabruyere/sentier/25"/><trkseg>
<trkpt lat="50.371184" lon="3.877976"><time>2026-05-04T17:42:59Z</time></trkpt>
<trkpt lat="50.371092" lon="3.877716"><time>2026-05-04T17:52:59Z</time></trkpt>
<trkpt lat="50.371125" lon="3.876548"><time>2026-05-04T18:02:59Z</time></trkpt>
<trkpt lat="50.370824" lon="3.875277"><time>2026-05-04T18:12:59Z</time></trkpt>
<trkpt lat="50.370821" lon="3.874875"><time>2026-05-04T18:22:59Z</time></trkpt>
<trkpt lat="50.370705" lon="3.872412"><time>2026-05-04T18:32:59Z</time></trkpt>
</trkseg></trk>
<trk>
<name>hfmsb25</name>
<cmt>r</cmt>
<desc>Sars-la-Bruyère Sentier n°25 Rue de Taisnières</desc>
<link href="https://chemins.be/sarslabruyere/sentier/25"/><trkseg>
<trkpt lat="50.370705" lon="3.872412"><time>2026-05-04T18:32:59Z</time></trkpt>
<trkpt lat="50.369884" lon="3.870910"><time>2026-05-04T18:42:59Z</time></trkpt>
</trkseg></trk>
<trk>
<name>hfmsb25</name>
<cmt>q</cmt>
<desc>Sars-la-Bruyère Sentier n°25 Rue de Taisnières</desc>
<link href="https://chemins.be/sarslabruyere/sentier/25"/><trkseg>
<trkpt lat="50.369884" lon="3.870910"><time>2026-05-04T18:42:59Z</time></trkpt>
<trkpt lat="50.371485" lon="3.869194"><time>2026-05-04T18:52:59Z</time></trkpt>
<trkpt lat="50.371745" lon="3.868142"><time>2026-05-04T19:02:59Z</time></trkpt>
<trkpt lat="50.371636" lon="3.866383"><time>2026-05-04T19:12:59Z</time></trkpt>
<trkpt lat="50.372156" lon="3.863593"><time>2026-05-04T19:22:59Z</time></trkpt>
<trkpt lat="50.372197" lon="3.860375"><time>2026-05-04T19:32:59Z</time></trkpt>
<trkpt lat="50.371704" lon="3.860503"><time>2026-05-04T19:42:59Z</time></trkpt>
<trkpt lat="50.370582" lon="3.853873"><time>2026-05-04T19:52:59Z</time></trkpt>
</trkseg>
</trk>
<trk>
<name>hfmsb26</name>
<cmt>v</cmt>
<desc>Sars-la-Bruyère Sentier n°26 Allée des Sars</desc>
<link href="https://chemins.be/sarslabruyere/sentier/26"/><trkseg>
<trkpt lat="50.368367" lon="3.859973"><time>2026-05-04T17:42:59Z</time></trkpt>
<trkpt lat="50.368519" lon="3.859746"><time>2026-05-04T17:52:59Z</time></trkpt>
<trkpt lat="50.372039" lon="3.852736"><time>2026-05-04T18:02:59Z</time></trkpt>
</trkseg>
</trk>
<trk>
<name>hfmsb27</name>
<cmt>v</cmt>
<desc>Sars-la-Bruyère Sentier n°27 </desc>
<link href="https://chemins.be/sarslabruyere/sentier/27"/><trkseg>
<trkpt lat="50.368501" lon="3.860943"><time>2026-05-04T17:42:59Z</time></trkpt>
<trkpt lat="50.368344" lon="3.859999"><time>2026-05-04T17:52:59Z</time></trkpt>
<trkpt lat="50.366895" lon="3.856684"><time>2026-05-04T18:02:59Z</time></trkpt>
<trkpt lat="50.364765" lon="3.851663"><time>2026-05-04T18:12:59Z</time></trkpt>
</trkseg>
</trk>
<trk>
<name>hfmsb28</name>
<cmt>q</cmt>
<desc>Sars-la-Bruyère Sentier n°28 Allée de Blaugies</desc>
<link href="https://chemins.be/sarslabruyere/sentier/28"/><trkseg>
<trkpt lat="50.365669" lon="3.861115"><time>2026-05-04T17:42:59Z</time></trkpt>
<trkpt lat="50.360405" lon="3.849458"><time>2026-05-04T17:52:59Z</time></trkpt>
<trkpt lat="50.360350" lon="3.848675"><time>2026-05-04T18:02:59Z</time></trkpt>
</trkseg>
</trk>
<trk>
<name>hfmsb29</name>
<cmt>v</cmt>
<desc>Sars-la-Bruyère Sentier n°29 </desc>
<link href="https://chemins.be/sarslabruyere/sentier/29"/><trkseg>
<trkpt lat="50.364217" lon="3.862778"><time>2026-05-04T17:42:59Z</time></trkpt>
<trkpt lat="50.359016" lon="3.851234"><time>2026-05-04T17:52:59Z</time></trkpt>
</trkseg></trk>
<trk>
<name>hfmsb29</name>
<cmt>q</cmt>
<desc>Sars-la-Bruyère Sentier n°29 </desc>
<link href="https://chemins.be/sarslabruyere/sentier/29"/><trkseg>
<trkpt lat="50.359016" lon="3.851234"><time>2026-05-04T17:52:59Z</time></trkpt>
<trkpt lat="50.357468" lon="3.847098"><time>2026-05-04T18:02:59Z</time></trkpt>
<trkpt lat="50.356969" lon="3.845327"><time>2026-05-04T18:12:59Z</time></trkpt>
</trkseg>
</trk>
<trk>
<name>hfmsb30</name>
<cmt>b</cmt>
<desc>Sars-la-Bruyère Sentier n°30 </desc>
<link href="https://chemins.be/sarslabruyere/sentier/30"/><trkseg>
<trkpt lat="50.363977" lon="3.879318"><time>2026-05-04T17:42:59Z</time></trkpt>
<trkpt lat="50.361511" lon="3.876121"><time>2026-05-04T17:52:59Z</time></trkpt>
<trkpt lat="50.357373" lon="3.870524"><time>2026-05-04T18:02:59Z</time></trkpt>
<trkpt lat="50.353704" lon="3.864902"><time>2026-05-04T18:12:59Z</time></trkpt>
</trkseg>
</trk>
<trk>
<name>hfmsb31</name>
<cmt>d</cmt>
<desc>Sars-la-Bruyère Sentier n°31 </desc>
<link href="https://chemins.be/sarslabruyere/sentier/31"/><trkseg>
<trkpt lat="50.361897" lon="3.875679"><time>2026-05-04T17:42:59Z</time></trkpt>
<trkpt lat="50.361438" lon="3.876109"><time>2026-05-04T17:52:59Z</time></trkpt>
</trkseg>
</trk>
<trk>
<name>hfmsb32</name>
<cmt>d</cmt>
<desc>Sars-la-Bruyère Sentier n°32 </desc>
<link href="https://chemins.be/sarslabruyere/sentier/32"/><trkseg>
<trkpt lat="50.363465" lon="3.876174"><time>2026-05-04T17:42:59Z</time></trkpt>
<trkpt lat="50.364875" lon="3.875952"><time>2026-05-04T17:52:59Z</time></trkpt>
</trkseg></trk>
<trk>
<name>hfmsb32</name>
<cmt>v</cmt>
<desc>Sars-la-Bruyère Sentier n°32 </desc>
<link href="https://chemins.be/sarslabruyere/sentier/32"/><trkseg>
<trkpt lat="50.364875" lon="3.875952"><time>2026-05-04T17:52:59Z</time></trkpt>
<trkpt lat="50.365274" lon="3.875686"><time>2026-05-04T18:02:59Z</time></trkpt>
<trkpt lat="50.365769" lon="3.875450"><time>2026-05-04T18:12:59Z</time></trkpt>
<trkpt lat="50.368268" lon="3.874446"><time>2026-05-04T18:22:59Z</time></trkpt>
<trkpt lat="50.369031" lon="3.874255"><time>2026-05-04T18:32:59Z</time></trkpt>
</trkseg>
</trk>
<trk>
<name>hfmsb33</name>
<cmt>v</cmt>
<desc>Sars-la-Bruyère Sentier n°33 Rue de Le Haye</desc>
<link href="https://chemins.be/sarslabruyere/sentier/33"/><trkseg>
<trkpt lat="50.372455" lon="3.876011"><time>2026-05-04T17:42:59Z</time></trkpt>
<trkpt lat="50.372085" lon="3.875607"><time>2026-05-04T17:52:59Z</time></trkpt>
<trkpt lat="50.371571" lon="3.875289"><time>2026-05-04T18:02:59Z</time></trkpt>
<trkpt lat="50.370832" lon="3.874889"><time>2026-05-04T18:12:59Z</time></trkpt>
<trkpt lat="50.370571" lon="3.874751"><time>2026-05-04T18:22:59Z</time></trkpt>
<trkpt lat="50.369183" lon="3.874091"><time>2026-05-04T18:32:59Z</time></trkpt>
<trkpt lat="50.368958" lon="3.874065"><time>2026-05-04T18:42:59Z</time></trkpt>
</trkseg></trk>
<trk>
<name>hfmsb33</name>
<cmt>s</cmt>
<desc>Sars-la-Bruyère Sentier n°33 Rue de Le Haye</desc>
<link href="https://chemins.be/sarslabruyere/sentier/33"/><trkseg>
<trkpt lat="50.368958" lon="3.874065"><time>2026-05-04T18:42:59Z</time></trkpt>
<trkpt lat="50.366813" lon="3.872809"><time>2026-05-04T18:52:59Z</time></trkpt>
</trkseg>
</trk>
<trk>
<name>hfmsb34</name>
<cmt>v</cmt>
<desc>Sars-la-Bruyère Sentier n°34 </desc>
<link href="https://chemins.be/sarslabruyere/sentier/34"/><trkseg>
<trkpt lat="50.365690" lon="3.872947"><time>2026-05-04T17:42:59Z</time></trkpt>
<trkpt lat="50.365771" lon="3.875181"><time>2026-05-04T17:52:59Z</time></trkpt>
<trkpt lat="50.365592" lon="3.875296"><time>2026-05-04T18:02:59Z</time></trkpt>
<trkpt lat="50.365616" lon="3.875521"><time>2026-05-04T18:12:59Z</time></trkpt>
<trkpt lat="50.365774" lon="3.875451"><time>2026-05-04T18:22:59Z</time></trkpt>
</trkseg></trk>
<trk>
<name>hfmsb34</name>
<cmt>d</cmt>
<desc>Sars-la-Bruyère Sentier n°34 </desc>
<link href="https://chemins.be/sarslabruyere/sentier/34"/><trkseg>
<trkpt lat="50.365774" lon="3.875451"><time>2026-05-04T18:22:59Z</time></trkpt>
<trkpt lat="50.365784" lon="3.875441"><time>2026-05-04T18:32:59Z</time></trkpt>
<trkpt lat="50.366318" lon="3.878383"><time>2026-05-04T18:42:59Z</time></trkpt>
<trkpt lat="50.366297" lon="3.880303"><time>2026-05-04T18:52:59Z</time></trkpt>
</trkseg>
</trk>
<trk>
<name>hfmsb35</name>
<cmt>v</cmt>
<desc>Sars-la-Bruyère Sentier n°35 </desc>
<link href="https://chemins.be/sarslabruyere/sentier/35"/><trkseg>
<trkpt lat="50.371184" lon="3.878115"><time>2026-05-04T17:42:59Z</time></trkpt>
<trkpt lat="50.370862" lon="3.878383"><time>2026-05-04T17:52:59Z</time></trkpt>
<trkpt lat="50.370218" lon="3.878622"><time>2026-05-04T18:02:59Z</time></trkpt>
</trkseg></trk>
<trk>
<name>hfmsb35</name>
<cmt>d</cmt>
<desc>Sars-la-Bruyère Sentier n°35 </desc>
<link href="https://chemins.be/sarslabruyere/sentier/35"/><trkseg>
<trkpt lat="50.370218" lon="3.878622"><time>2026-05-04T18:02:59Z</time></trkpt>
<trkpt lat="50.367016" lon="3.881752"><time>2026-05-04T18:12:59Z</time></trkpt>
</trkseg></trk>
<trk>
<name>hfmsb35</name>
<cmt>r</cmt>
<desc>Sars-la-Bruyère Sentier n°35 </desc>
<link href="https://chemins.be/sarslabruyere/sentier/35"/><trkseg>
<trkpt lat="50.367016" lon="3.881752"><time>2026-05-04T18:12:59Z</time></trkpt>
<trkpt lat="50.367262" lon="3.882455"><time>2026-05-04T18:22:59Z</time></trkpt>
</trkseg></trk>
<trk>
<name>hfmsb35</name>
<cmt>q</cmt>
<desc>Sars-la-Bruyère Sentier n°35 </desc>
<link href="https://chemins.be/sarslabruyere/sentier/35"/><trkseg>
<trkpt lat="50.367262" lon="3.882455"><time>2026-05-04T18:22:59Z</time></trkpt>
<trkpt lat="50.366968" lon="3.882744"><time>2026-05-04T18:32:59Z</time></trkpt>
</trkseg>
</trk>
<trk>
<name>hfmsb36</name>
<cmt>q</cmt>
<desc>Sars-la-Bruyère Sentier n°36 </desc>
<link href="https://chemins.be/sarslabruyere/sentier/36"/><trkseg>
<trkpt lat="50.371084" lon="3.876441"><time>2026-05-04T17:42:59Z</time></trkpt>
<trkpt lat="50.371570" lon="3.875288"><time>2026-05-04T17:52:59Z</time></trkpt>
<trkpt lat="50.371584" lon="3.874167"><time>2026-05-04T18:02:59Z</time></trkpt>
</trkseg>
</trk>
<trk>
<name>hfmsb37</name>
<cmt>q</cmt>
<desc>Sars-la-Bruyère Sentier n°37 </desc>
<link href="https://chemins.be/sarslabruyere/sentier/37"/><trkseg>
<trkpt lat="50.372336" lon="3.876479"><time>2026-05-04T17:42:59Z</time></trkpt>
<trkpt lat="50.371837" lon="3.876736"><time>2026-05-04T17:52:59Z</time></trkpt>
<trkpt lat="50.371224" lon="3.878008"><time>2026-05-04T18:02:59Z</time></trkpt>
</trkseg>
</trk>
<trk>
<name>hfmsb38</name>
<cmt>q</cmt>
<desc>Sars-la-Bruyère Sentier n°38 </desc>
<link href="https://chemins.be/sarslabruyere/sentier/38"/><trkseg>
<trkpt lat="50.372087" lon="3.875599"><time>2026-05-04T17:42:59Z</time></trkpt>
<trkpt lat="50.372015" lon="3.874569"><time>2026-05-04T17:52:59Z</time></trkpt>
</trkseg>
</trk>
<trk>
<name>hfmsb39</name>
<cmt>q</cmt>
<desc>Sars-la-Bruyère Sentier n°39 </desc>
<link href="https://chemins.be/sarslabruyere/sentier/39"/><trkseg>
<trkpt lat="50.372699" lon="3.874896"><time>2026-05-04T17:42:59Z</time></trkpt>
<trkpt lat="50.372285" lon="3.875293"><time>2026-05-04T17:52:59Z</time></trkpt>
<trkpt lat="50.372107" lon="3.875352"><time>2026-05-04T18:02:59Z</time></trkpt>
<trkpt lat="50.371775" lon="3.875390"><time>2026-05-04T18:12:59Z</time></trkpt>
</trkseg>
</trk>
<trk>
<name>hfmsb4</name>
<cmt>v</cmt>
<desc>Sars-la-Bruyère Chemin n°4 </desc>
<link href="https://chemins.be/sarslabruyere/chemin/4"/><trkseg>
<trkpt lat="50.383267" lon="3.884718"><time>2026-05-04T17:42:59Z</time></trkpt>
<trkpt lat="50.384348" lon="3.887100"><time>2026-05-04T17:52:59Z</time></trkpt>
<trkpt lat="50.385675" lon="3.888924"><time>2026-05-04T18:02:59Z</time></trkpt>
<trkpt lat="50.386729" lon="3.891349"><time>2026-05-04T18:12:59Z</time></trkpt>
</trkseg>
</trk>
<trk>
<name>hfmsb40</name>
<cmt>v</cmt>
<desc>Sars-la-Bruyère Sentier n°40 </desc>
<link href="https://chemins.be/sarslabruyere/sentier/40"/><trkseg>
<trkpt lat="50.371543" lon="3.879254"><time>2026-05-04T17:42:59Z</time></trkpt>
<trkpt lat="50.372554" lon="3.880424"><time>2026-05-04T17:52:59Z</time></trkpt>
<trkpt lat="50.373783" lon="3.881789"><time>2026-05-04T18:02:59Z</time></trkpt>
</trkseg>
</trk>
<trk>
<name>hfmsb5</name>
<cmt>v</cmt>
<desc>Sars-la-Bruyère Chemin n°5 Chemin de Sars à Genly</desc>
<link href="https://chemins.be/sarslabruyere/chemin/5"/><trkseg>
<trkpt lat="50.374246" lon="3.878593"><time>2026-05-04T17:42:59Z</time></trkpt>
<trkpt lat="50.373783" lon="3.881775"><time>2026-05-04T17:52:59Z</time></trkpt>
<trkpt lat="50.373584" lon="3.883661"><time>2026-05-04T18:02:59Z</time></trkpt>
<trkpt lat="50.373830" lon="3.884530"><time>2026-05-04T18:12:59Z</time></trkpt>
<trkpt lat="50.374529" lon="3.888347"><time>2026-05-04T18:22:59Z</time></trkpt>
<trkpt lat="50.375170" lon="3.893331"><time>2026-05-04T18:32:59Z</time></trkpt>
</trkseg>
</trk>
<trk>
<name>hfmsb6</name>
<cmt>v</cmt>
<desc>Sars-la-Bruyère Chemin n°6 Rue Haute</desc>
<link href="https://chemins.be/sarslabruyere/chemin/6"/><trkseg>
<trkpt lat="50.376533" lon="3.860532"><time>2026-05-04T17:42:59Z</time></trkpt>
<trkpt lat="50.377264" lon="3.861101"><time>2026-05-04T17:52:59Z</time></trkpt>
<trkpt lat="50.378017" lon="3.862822"><time>2026-05-04T18:02:59Z</time></trkpt>
<trkpt lat="50.379435" lon="3.864311"><time>2026-05-04T18:12:59Z</time></trkpt>
<trkpt lat="50.381363" lon="3.867300"><time>2026-05-04T18:22:59Z</time></trkpt>
</trkseg>
</trk>
<trk>
<name>hfmsb8</name>
<cmt>d</cmt>
<desc>Sars-la-Bruyère Chemin n°8 </desc>
<link href="https://chemins.be/sarslabruyere/chemin/8"/><trkseg>
<trkpt lat="50.362704" lon="3.875025"><time>2026-05-04T17:42:59Z</time></trkpt>
<trkpt lat="50.361910" lon="3.875658"><time>2026-05-04T17:52:59Z</time></trkpt>
</trkseg>
</trk>
<trk>
<name>hfmsbi1</name>
<cmt>v</cmt>
<desc>Sars-la-Bruyère Chemin n°i1 </desc>
<link href="https://chemins.be/sarslabruyere/chemin/i1"/><trkseg>
<trkpt lat="50.349133" lon="3.858834"><time>2026-05-04T17:42:59Z</time></trkpt>
<trkpt lat="50.351673" lon="3.854273"><time>2026-05-04T17:52:59Z</time></trkpt>
</trkseg></trk>
<trk>
<name>hfmsbi1</name>
<cmt>d</cmt>
<desc>Sars-la-Bruyère Chemin n°i1 </desc>
<link href="https://chemins.be/sarslabruyere/chemin/i1"/><trkseg>
<trkpt lat="50.351673" lon="3.854273"><time>2026-05-04T17:52:59Z</time></trkpt>
<trkpt lat="50.352163" lon="3.853573"><time>2026-05-04T18:02:59Z</time></trkpt>
<trkpt lat="50.352843" lon="3.852203"><time>2026-05-04T18:12:59Z</time></trkpt>
<trkpt lat="50.353183" lon="3.851513"><time>2026-05-04T18:22:59Z</time></trkpt>
<trkpt lat="50.353463" lon="3.850753"><time>2026-05-04T18:32:59Z</time></trkpt>
<trkpt lat="50.353712" lon="3.849265"><time>2026-05-04T18:42:59Z</time></trkpt>
</trkseg></trk>
<trk>
<name>hfmsbi1</name>
<cmt>v</cmt>
<desc>Sars-la-Bruyère Chemin n°i1 </desc>
<link href="https://chemins.be/sarslabruyere/chemin/i1"/><trkseg>
<trkpt lat="50.353712" lon="3.849265"><time>2026-05-04T18:42:59Z</time></trkpt>
<trkpt lat="50.354680" lon="3.844061"><time>2026-05-04T18:52:59Z</time></trkpt>
</trkseg>
</trk>
<trk>
<name>hfmsbi2</name>
<cmt>v</cmt>
<desc>Sars-la-Bruyère Sentier n°i2 Rue du Progrès</desc>
<link href="https://chemins.be/sarslabruyere/sentier/i2"/><trkseg>
<trkpt lat="50.381511" lon="3.884304"><time>2026-05-04T17:42:59Z</time></trkpt>
<trkpt lat="50.383172" lon="3.884590"><time>2026-05-04T17:52:59Z</time></trkpt>
<trkpt lat="50.384609" lon="3.883367"><time>2026-05-04T18:02:59Z</time></trkpt>
</trkseg>
</trk>
<trk>
<name>hfmsbi3</name>
<cmt>q</cmt>
<desc>Sars-la-Bruyère Chemin n°i3 </desc>
<link href="https://chemins.be/sarslabruyere/chemin/i3"/><trkseg>
<trkpt lat="50.384308" lon="3.886864"><time>2026-05-04T17:42:59Z</time></trkpt>
<trkpt lat="50.382501" lon="3.888838"><time>2026-05-04T17:52:59Z</time></trkpt>
<trkpt lat="50.381791" lon="3.889979"><time>2026-05-04T18:02:59Z</time></trkpt>
<trkpt lat="50.381325" lon="3.890727"><time>2026-05-04T18:12:59Z</time></trkpt>
<trkpt lat="50.380175" lon="3.891885"><time>2026-05-04T18:22:59Z</time></trkpt>
<trkpt lat="50.378232" lon="3.892829"><time>2026-05-04T18:32:59Z</time></trkpt>
<trkpt lat="50.377028" lon="3.895619"><time>2026-05-04T18:42:59Z</time></trkpt>
</trkseg>
</trk>
<trk>
<name>hfmsbi4</name>
<cmt>v</cmt>
<desc>Sars-la-Bruyère Chemin n°i4 </desc>
<link href="https://chemins.be/sarslabruyere/chemin/i4"/><trkseg>
<trkpt lat="50.372439" lon="3.876031"><time>2026-05-04T17:42:59Z</time></trkpt>
<trkpt lat="50.371881" lon="3.875532"><time>2026-05-04T17:52:59Z</time></trkpt>
<trkpt lat="50.371519" lon="3.875344"><time>2026-05-04T18:02:59Z</time></trkpt>
<trkpt lat="50.370554" lon="3.874802"><time>2026-05-04T18:12:59Z</time></trkpt>
<trkpt lat="50.369049" lon="3.874177"><time>2026-05-04T18:22:59Z</time></trkpt>
</trkseg></trk>
<trk>
<name>hfmsbi4</name>
<cmt>q</cmt>
<desc>Sars-la-Bruyère Chemin n°i4 </desc>
<link href="https://chemins.be/sarslabruyere/chemin/i4"/><trkseg>
<trkpt lat="50.369049" lon="3.874177"><time>2026-05-04T18:22:59Z</time></trkpt>
<trkpt lat="50.368357" lon="3.874242"><time>2026-05-04T18:32:59Z</time></trkpt>
<trkpt lat="50.365777" lon="3.875351"><time>2026-05-04T18:42:59Z</time></trkpt>
<trkpt lat="50.365114" lon="3.875636"><time>2026-05-04T18:52:59Z</time></trkpt>
<trkpt lat="50.364869" lon="3.875952"><time>2026-05-04T19:02:59Z</time></trkpt>
</trkseg></trk>
<trk>
<name>hfmsbi4</name>
<cmt>v</cmt>
<desc>Sars-la-Bruyère Chemin n°i4 </desc>
<link href="https://chemins.be/sarslabruyere/chemin/i4"/><trkseg>
<trkpt lat="50.364869" lon="3.875952"><time>2026-05-04T19:02:59Z</time></trkpt>
<trkpt lat="50.364636" lon="3.876504"><time>2026-05-04T19:12:59Z</time></trkpt>
<trkpt lat="50.364409" lon="3.877889"><time>2026-05-04T19:22:59Z</time></trkpt>
</trkseg>
</trk>
<trk>
<name>hfmsbi5</name>
<cmt>v</cmt>
<desc>Sars-la-Bruyère Chemin n°i5 </desc>
<link href="https://chemins.be/sarslabruyere/chemin/i5"/><trkseg>
<trkpt lat="50.356118" lon="3.863840"><time>2026-05-04T17:42:59Z</time></trkpt>
<trkpt lat="50.353836" lon="3.860121"><time>2026-05-04T17:52:59Z</time></trkpt>
<trkpt lat="50.356691" lon="3.849694"><time>2026-05-04T18:02:59Z</time></trkpt>
<trkpt lat="50.357384" lon="3.847160"><time>2026-05-04T18:12:59Z</time></trkpt>
<trkpt lat="50.357706" lon="3.846059"><time>2026-05-04T18:22:59Z</time></trkpt>
<trkpt lat="50.357626" lon="3.845894"><time>2026-05-04T18:32:59Z</time></trkpt>
<trkpt lat="50.357014" lon="3.845379"><time>2026-05-04T18:42:59Z</time></trkpt>
</trkseg>
</trk>
<trk>
<name>hfmsbi6</name>
<cmt>v</cmt>
<desc>Sars-la-Bruyère Chemin n°i6 </desc>
<link href="https://chemins.be/sarslabruyere/chemin/i6"/><trkseg>
<trkpt lat="50.359066" lon="3.851266"><time>2026-05-04T17:42:59Z</time></trkpt>
<trkpt lat="50.356693" lon="3.849692"><time>2026-05-04T17:52:59Z</time></trkpt>
</trkseg>
</trk>
<trk>
<name>hfmsbi7</name>
<cmt>v</cmt>
<desc>Sars-la-Bruyère Chemin n°i7 Allée Degorge</desc>
<link href="https://chemins.be/sarslabruyere/chemin/i7"/><trkseg>
<trkpt lat="50.372124" lon="3.852772"><time>2026-05-04T17:42:59Z</time></trkpt>
<trkpt lat="50.366918" lon="3.856681"><time>2026-05-04T17:52:59Z</time></trkpt>
<trkpt lat="50.365417" lon="3.857807"><time>2026-05-04T18:02:59Z</time></trkpt>
<trkpt lat="50.366631" lon="3.860553"><time>2026-05-04T18:12:59Z</time></trkpt>
</trkseg>
</trk>
</gpx>